Location: Unspecified
(51.5147°N, 7.4673°E)
Time: 08:07:00
(UTC+01:00)

Explorer 7 - Pass Details

Date: 25 February 2026
Orbit: 430 x 541 km, 50.2° (Epoch: 11 March)

Event Time Altitude Azimuth Distance (km) Brightness Sun altitude
Rises 14:28:49 0° 252° (WSW) 2,408 10.8 25.4°
Reaches altitude 10° 14:30:55 10° 249° (WSW) 1,550 10.0 25.2°
Maximum altitude 14:34:22 62° 168° (SSE) 508 7.4 25.0°
Drops below altitude 10° 14:37:56 10° 88° (E) 1,601 9.0 24.7°
Sets 14:40:07 0° 85° (E) 2,497 9.8 24.5°
